| time (UTC) | temp F | wind direction | speed knots | gust knots | rain 1hr in | rain 24hr in | rain mn in | humidity % | barometer mb |
| 20260831121915 | 89 | 5 | 1.7 | 2.6 | 0.00 | 0.00 | 0.00 | 52 | 1012.6 |
| 20260831121414 | 89 | 213 | 1.7 | 4.3 | 0.00 | 0.00 | 0.00 | 52 | 1012.6 |
| 20260831120915 | 89 | 265 | 3.5 | 6.1 | 0.00 | 0.00 | 0.00 | 53 | 1012.6 |
| 20260831120414 | 90 | 287 | 5.2 | 7.0 | 0.00 | 0.00 | 0.00 | 53 | 1012.7 |
| 20260831115915 | 90 | 315 | 2.6 | 6.1 | 0.00 | 0.00 | 0.00 | 53 | 1012.7 |
| 20260831115416 | 90 | 353 | 2.6 | 5.2 | 0.00 | 0.00 | 0.00 | 53 | 1012.7 |
| 20260831114916 | 90 | 337 | 3.5 | 7.8 | 0.00 | 0.00 | 0.00 | 52 | 1012.7 |
| 20260831114415 | 90 | 296 | 4.3 | 7.0 | 0.00 | 0.00 | 0.00 | 52 | 1012.8 |
| 20260831113914 | 90 | 312 | 1.7 | 6.1 | 0.00 | 0.00 | 0.00 | 53 | 1012.8 |
| 20260831113415 | 88 | 245 | 2.6 | 4.3 | 0.00 | 0.00 | 0.00 | 54 | 1012.9 |
| 20260831112915 | 89 | 261 | 4.3 | 8.7 | 0.00 | 0.00 | 0.00 | 54 | 1013.0 |
| 20260831112414 | 89 | 267 | 4.3 | 8.7 | 0.00 | 0.00 | 0.00 | 55 | 1012.9 |
| 20260831111415 | 88 | 327 | 2.6 | 10.4 | 0.00 | 0.00 | 0.00 | 54 | 1013.0 |
| 20260831110916 | 88 | 300 | 2.6 | 6.1 | 0.00 | 0.00 | 0.00 | 55 | 1013.0 |
| 20260831110414 | 87 | 152 | 2.6 | 4.3 | 0.00 | 0.00 | 0.00 | 56 | 1013.0 |
| 20260831105915 | 87 | 240 | 1.7 | 5.2 | 0.00 | 0.00 | 0.00 | 56 | 1013.0 |
| 20260831105414 | 88 | 246 | 3.5 | 7.8 | 0.00 | 0.00 | 0.00 | 55 | 1013.0 |
| 20260831104914 | 87 | 242 | 1.7 | 5.2 | 0.00 | 0.00 | 0.00 | 58 | 1013.1 |
| 20260831104414 | 87 | 202 | 3.5 | 5.2 | 0.00 | 0.00 | 0.00 | 57 | 1013.1 |
| 20260831103914 | 87 | 214 | 2.6 | 4.3 | 0.00 | 0.00 | 0.00 | 57 | 1013.1 |
| 20260831103414 | 87 | 267 | 0.9 | 2.6 | 0.00 | 0.00 | 0.00 | 57 | 1013.2 |
| 20260831102915 | 87 | 341 | 1.7 | 4.3 | 0.00 | 0.00 | 0.00 | 60 | 1013.2 |
| 20260831102414 | 87 | 253 | 3.5 | 5.2 | 0.00 | 0.00 | 0.00 | 59 | 1013.2 |
| 20260831101414 | 86 | 257 | 1.7 | 4.3 | 0.00 | 0.00 | 0.00 | 60 | 1013.2 |
| 20260831100414 | 86 | 286 | 0.9 | 2.6 | 0.00 | 0.00 | 0.00 | 60 | 1013.3 |
| 20260831095914 | 85 | 290 | 4.3 | 7.0 | 0.00 | 0.00 | 0.00 | 63 | 1013.4 |
| 20260831095414 | 85 | 242 | 1.7 | 4.3 | 0.00 | 0.00 | 0.00 | 63 | 1013.4 |
| 20260831094914 | 85 | 243 | 2.6 | 5.2 | 0.00 | 0.00 | 0.00 | 65 | 1013.5 |
| 20260831093915 | 84 | 255 | 2.6 | 5.2 | 0.00 | 0.00 | 0.00 | 66 | 1013.5 |
| 20260831093414 | 84 | 276 | 4.3 | 6.1 | 0.00 | 0.00 | 0.00 | 67 | 1013.6 |
| 20260831092914 | 84 | 283 | 3.5 | 6.1 | 0.00 | 0.00 | 0.00 | 68 | 1013.7 |
| 20260831092415 | 84 | 325 | 2.6 | 5.2 | 0.00 | 0.00 | 0.00 | 67 | 1013.7 |
| 20260831091913 | 83 | 260 | 2.6 | 5.2 | 0.00 | 0.00 | 0.00 | 67 | 1013.7 |
| 20260831091414 | 84 | 263 | 2.6 | 5.2 | 0.00 | 0.00 | 0.00 | 67 | 1013.7 |
| 20260831090914 | 83 | 211 | 2.6 | 4.3 | 0.00 | 0.00 | 0.00 | 66 | 1013.7 |
| 20260831090414 | 83 | 305 | 1.7 | 5.2 | 0.00 | 0.00 | 0.00 | 67 | 1013.8 |
| 20260831085414 | 83 | 302 | 2.6 | 7.0 | 0.00 | 0.00 | 0.00 | 67 | 1013.8 |
| 20260831084914 | 83 | 296 | 2.6 | 5.2 | 0.00 | 0.00 | 0.00 | 68 | 1013.8 |
| 20260831083914 | 82 | 307 | 1.7 | 5.2 | 0.00 | 0.00 | 0.00 | 70 | 1013.8 |
| 20260831083413 | 82 | 297 | 1.7 | 5.2 | 0.00 | 0.00 | 0.00 | 71 | 1013.8 |
| 20260831082914 | 81 | 313 | 2.6 | 5.2 | 0.00 | 0.00 | 0.00 | 71 | 1013.7 |
| 20260831082414 | 81 | 295 | 2.6 | 5.2 | 0.00 | 0.00 | 0.00 | 72 | 1013.7 |
| 20260831080914 | 80 | 252 | 0.9 | 4.3 | 0.00 | 0.00 | 0.00 | 75 | 1013.5 |
| 20260831075914 | 79 | 309 | 1.7 | 4.3 | 0.00 | 0.00 | 0.00 | 74 | 1013.5 |
| 20260831075414 | 79 | 323 | 2.6 | 6.1 | 0.00 | 0.00 | 0.00 | 75 | 1013.5 |
| 20260831074914 | 78 | 296 | 2.6 | 4.3 | 0.00 | 0.00 | 0.00 | 78 | 1013.5 |
| 20260831073914 | 77 | 254 | 1.7 | 2.6 | 0.00 | 0.00 | 0.00 | 78 | 1013.4 |
| 20260831073414 | 77 | 256 | 1.7 | 2.6 | 0.00 | 0.00 | 0.00 | 78 | 1013.4 |
| 20260831072914 | 77 | 172 | 0.9 | 2.6 | 0.00 | 0.00 | 0.00 | 78 | 1013.3 |
| 20260831072415 | 76 | 213 | 0.0 | 0.0 | 0.00 | 0.00 | 0.00 | 79 | 1013.3 |
| 20260831071914 | 76 | 225 | 0.9 | 1.7 | 0.00 | 0.00 | 0.00 | 79 | 1013.2 |
| 20260831071413 | 75 | 222 | 0.9 | 2.6 | 0.00 | 0.00 | 0.00 | 80 | 1013.3 |
| 20260831070414 | 75 | 228 | 0.9 | 2.6 | 0.00 | 0.00 | 0.00 | 82 | 1013.2 |
| 20260831065913 | 74 | 239 | 2.6 | 2.6 | 0.00 | 0.00 | 0.00 | 82 | 1013.3 |
| 20260831065415 | 74 | 248 | 1.7 | 2.6 | 0.00 | 0.00 | 0.00 | 83 | 1013.3 |
| 20260831064914 | 74 | 275 | 1.7 | 2.6 | 0.00 | 0.00 | 0.00 | 83 | 1013.3 |
| 20260831064414 | 73 | 274 | 0.0 | 0.0 | 0.00 | 0.00 | 0.00 | 84 | 1013.2 |
| 20260831063913 | 73 | 281 | 0.0 | 1.7 | 0.00 | 0.00 | 0.00 | 84 | 1013.2 |
| 20260831062414 | 72 | 261 | 1.7 | 2.6 | 0.00 | 0.00 | 0.00 | 87 | 1013.3 |
| 20260831061413 | 71 | 250 | 2.6 | 2.6 | 0.00 | 0.00 | 0.00 | 87 | 1013.3 |
| 20260831060913 | 71 | 263 | 1.7 | 2.6 | 0.00 | 0.00 | 0.00 | 88 | 1013.3 |
| 20260831055913 | 69 | 236 | 0.9 | 2.6 | 0.00 | 0.00 | 0.00 | 90 | 1013.2 |
| 20260831054914 | 68 | 236 | 1.7 | 2.6 | 0.00 | 0.00 | 0.00 | 91 | 1013.2 |
| 20260831053914 | 68 | 286 | 0.0 | 0.0 | 0.00 | 0.00 | 0.00 | 91 | 1013.1 |
| 20260831052914 | 68 | 302 | 0.0 | 0.0 | 0.00 | 0.00 | 0.00 | 92 | 1013.0 |
| 20260831052413 | 67 | 306 | 0.0 | 0.0 | 0.00 | 0.00 | 0.00 | 92 | 1013.0 |
| 20260831051913 | 67 | 306 | 0.0 | 0.0 | 0.00 | 0.00 | 0.00 | 92 | 1013.0 |
| 20260831051414 | 67 | 305 | 0.0 | 0.0 | 0.00 | 0.00 | 0.00 | 92 | 1013.0 |
| 20260831050914 | 67 | 290 | 0.0 | 0.0 | 0.00 | 0.00 | 0.00 | 92 | 1013.0 |
| 20260831050413 | 67 | 190 | 0.0 | 0.0 | 0.00 | 0.00 | 0.00 | 92 | 1012.9 |
| 20260831045913 | 67 | 190 | 0.0 | 0.0 | 0.00 | 0.00 | 0.00 | 92 | 1012.8 |
| 20260831045413 | 67 | 190 | 0.0 | 0.0 | 0.00 | 0.00 | 0.00 | 92 | 1012.8 |
| 20260831044913 | 67 | 190 | 0.0 | 0.0 | 0.00 | 0.00 | 0.00 | 93 | 1012.7 |
| 20260831044413 | 67 | 190 | 0.0 | 0.0 | 0.00 | 0.00 | 0.00 | 93 | 1012.6 |
| 20260831043914 | 67 | 190 | 0.0 | 0.0 | 0.00 | 0.00 | 0.00 | 93 | 1012.5 |
| 20260831043413 | 67 | 190 | 0.0 | 0.0 | 0.00 | 0.00 | 0.00 | 93 | 1012.6 |
| 20260831042913 | 67 | 190 | 0.0 | 0.0 | 0.00 | 0.00 | 0.00 | 93 | 1012.6 |
| 20260831042413 | 67 | 190 | 0.0 | 0.0 | 0.00 | 0.00 | 0.00 | 93 | 1012.5 |
| 20260831041913 | 67 | 155 | 0.0 | 0.0 | 0.00 | 0.00 | 0.00 | 93 | 1012.5 |
| 20260831041413 | 67 | 153 | 0.0 | 0.0 | 0.00 | 0.00 | 0.00 | 93 | 1012.6 |
| 20260831040413 | 67 | 89 | 0.0 | 0.0 | 0.00 | 0.00 | 0.00 | 93 | 1012.7 |
| 20260831035913 | 68 | 89 | 0.0 | 0.0 | 0.00 | 0.00 | 0.00 | 93 | 1012.6 |
| 20260831035413 | 67 | 89 | 0.0 | 0.0 | 0.00 | 0.00 | 0.00 | 93 | 1012.6 |
| 20260831034913 | 67 | 89 | 0.0 | 0.0 | 0.00 | 0.00 | 0.00 | 94 | 1012.6 |
| 20260831034414 | 67 | 89 | 0.0 | 0.0 | 0.00 | 0.00 | 0.00 | 93 | 1012.6 |
| 20260831033913 | 67 | 89 | 0.0 | 0.0 | 0.00 | 0.00 | 0.00 | 93 | 1012.5 |
| 20260831033413 | 67 | 89 | 0.0 | 0.0 | 0.00 | 0.00 | 0.00 | 93 | 1012.6 |
| 20260831032914 | 68 | 89 | 0.0 | 0.0 | 0.00 | 0.00 | 0.00 | 93 | 1012.7 |
| 20260831032414 | 67 | 89 | 0.0 | 0.0 | 0.00 | 0.00 | 0.00 | 93 | 1012.8 |
| 20260831031413 | 67 | 89 | 0.0 | 0.0 | 0.00 | 0.00 | 0.00 | 93 | 1012.8 |
| 20260831030913 | 67 | 89 | 0.0 | 0.0 | 0.00 | 0.00 | 0.00 | 93 | 1012.7 |
| 20260831030413 | 67 | 89 | 0.0 | 0.0 | 0.00 | 0.00 | 0.00 | 93 | 1012.8 |
| 20260831025413 | 68 | 89 | 0.0 | 0.0 | 0.00 | 0.00 | 0.00 | 92 | 1012.9 |
| 20260831024913 | 68 | 89 | 0.0 | 0.0 | 0.00 | 0.00 | 0.00 | 92 | 1012.8 |
| 20260831024414 | 68 | 89 | 0.0 | 0.0 | 0.00 | 0.00 | 0.00 | 92 | 1012.9 |
| 20260831023913 | 68 | 89 | 0.0 | 0.0 | 0.00 | 0.00 | 0.00 | 91 | 1012.9 |
| 20260831023413 | 68 | 89 | 0.0 | 0.0 | 0.00 | 0.00 | 0.00 | 91 | 1012.9 |
| 20260831022913 | 68 | 89 | 0.0 | 1.7 | 0.00 | 0.00 | 0.00 | 90 | 1012.9 |
| 20260831022413 | 68 | 89 | 0.9 | 4.3 | 0.00 | 0.00 | 0.00 | 90 | 1012.9 |
| 20260831021912 | 69 | 103 | 1.7 | 2.6 | 0.00 | 0.00 | 0.00 | 89 | 1012.9 |
| 20260831021413 | 69 | 49 | 0.9 | 1.7 | 0.00 | 0.00 | 0.00 | 89 | 1012.9 |
| 20260831020913 | 69 | 49 | 0.0 | 1.7 | 0.00 | 0.00 | 0.00 | 89 | 1012.9 |
| 20260831020413 | 69 | 49 | 0.0 | 1.7 | 0.00 | 0.00 | 0.00 | 89 | 1013.0 |
| 20260831015913 | 68 | 49 | 0.9 | 2.6 | 0.00 | 0.00 | 0.00 | 90 | 1012.9 |
| 20260831014912 | 68 | 49 | 1.7 | 2.6 | 0.00 | 0.00 | 0.00 | 89 | 1012.9 |
| 20260831014413 | 69 | 49 | 0.9 | 1.7 | 0.00 | 0.00 | 0.00 | 89 | 1012.9 |
| 20260831013913 | 69 | 49 | 1.7 | 2.6 | 0.00 | 0.00 | 0.00 | 88 | 1013.0 |
| 20260831013414 | 69 | 49 | 0.9 | 2.6 | 0.00 | 0.00 | 0.00 | 88 | 1012.9 |
| 20260831012913 | 70 | 49 | 0.9 | 1.7 | 0.00 | 0.00 | 0.00 | 87 | 1013.0 |
| 20260831012412 | 70 | 49 | 0.9 | 2.6 | 0.00 | 0.00 | 0.00 | 86 | 1013.0 |
| 20260831011912 | 70 | 49 | 0.0 | 0.0 | 0.00 | 0.00 | 0.00 | 87 | 1013.0 |
| 20260831010912 | 70 | 49 | 0.0 | 0.9 | 0.00 | 0.00 | 0.00 | 86 | 1013.0 |
| 20260831010413 | 70 | 49 | 0.9 | 1.7 | 0.00 | 0.00 | 0.00 | 86 | 1013.0 |
| 20260831005912 | 70 | 49 | 0.9 | 1.7 | 0.00 | 0.00 | 0.00 | 85 | 1013.0 |
| 20260831005413 | 70 | 49 | 0.9 | 1.7 | 0.00 | 0.00 | 0.00 | 85 | 1013.0 |
| 20260831004913 | 70 | 49 | 0.9 | 1.7 | 0.00 | 0.00 | 0.00 | 86 | 1012.9 |
| 20260831004413 | 70 | 49 | 1.7 | 2.6 | 0.00 | 0.00 | 0.00 | 86 | 1013.0 |
| 20260831003913 | 70 | 49 | 0.9 | 2.6 | 0.00 | 0.00 | 0.00 | 86 | 1013.0 |
| 20260831003413 | 70 | 49 | 0.9 | 2.6 | 0.00 | 0.00 | 0.00 | 86 | 1013.1 |
| 20260831002913 | 70 | 49 | 1.7 | 2.6 | 0.00 | 0.00 | 0.00 | 85 | 1013.0 |
| 20260831002413 | 70 | 49 | 0.9 | 2.6 | 0.00 | 0.00 | 0.00 | 85 | 1013.1 |
| 20260831001913 | 71 | 49 | 0.9 | 2.6 | 0.00 | 0.00 | 0.00 | 84 | 1013.1 |
| 20260831001413 | 71 | 49 | 1.7 | 2.6 | 0.00 | 0.00 | 0.00 | 84 | 1013.1 |
| 20260831000913 | 71 | 49 | 0.9 | 2.6 | 0.00 | 0.00 | 0.00 | 84 | 1013.2 |
| 20260831000413 | 71 | 49 | 1.7 | 2.6 | 0.00 | 0.00 | 0.00 | 83 | 1013.2 |
| 20260830235913 | 71 | 49 | 1.7 | 2.6 | 0.00 | 0.00 | 0.00 | 83 | 1013.2 |
| 20260830235413 | 71 | 49 | 0.9 | 1.7 | 0.00 | 0.00 | 0.00 | 83 | 1013.2 |
| 20260830234912 | 71 | 49 | 0.0 | 1.7 | 0.00 | 0.00 | 0.00 | 82 | 1013.3 |
| 20260830233912 | 71 | 49 | 0.9 | 1.7 | 0.00 | 0.00 | 0.00 | 83 | 1013.2 |
| 20260830233413 | 71 | 49 | 0.0 | 1.7 | 0.00 | 0.00 | 0.00 | 82 | 1013.3 |
| 20260830232912 | 72 | 49 | 1.7 | 2.6 | 0.00 | 0.00 | 0.00 | 82 | 1013.3 |
| 20260830232413 | 71 | 49 | 0.9 | 2.6 | 0.00 | 0.00 | 0.00 | 82 | 1013.3 |
| 20260830231913 | 71 | 49 | 0.0 | 1.7 | 0.00 | 0.00 | 0.00 | 83 | 1013.3 |
| 20260830231413 | 71 | 49 | 0.0 | 0.9 | 0.00 | 0.00 | 0.00 | 84 | 1013.4 |
| 20260830230912 | 71 | 49 | 0.9 | 1.7 | 0.00 | 0.00 | 0.00 | 84 | 1013.3 |
| 20260830230413 | 71 | 49 | 0.0 | 0.0 | 0.00 | 0.00 | 0.00 | 83 | 1013.3 |
| 20260830225912 | 72 | 49 | 0.0 | 0.9 | 0.00 | 0.00 | 0.00 | 82 | 1013.4 |
| 20260830225413 | 72 | 49 | 0.0 | 0.9 | 0.00 | 0.00 | 0.00 | 82 | 1013.3 |
| 20260830224913 | 72 | 49 | 0.0 | 0.0 | 0.00 | 0.00 | 0.00 | 82 | 1013.3 |
| 20260830224413 | 72 | 49 | 0.0 | 0.9 | 0.00 | 0.00 | 0.00 | 81 | 1013.3 |
| 20260830223912 | 72 | 49 | 0.0 | 0.0 | 0.00 | 0.00 | 0.00 | 81 | 1013.3 |
| 20260830223412 | 72 | 49 | 0.0 | 0.0 | 0.00 | 0.00 | 0.00 | 82 | 1013.2 |
| 20260830222412 | 72 | 49 | 0.9 | 1.7 | 0.00 | 0.00 | 0.00 | 81 | 1013.2 |
| 20260830221912 | 73 | 49 | 0.9 | 0.9 | 0.00 | 0.00 | 0.00 | 81 | 1013.2 |
| 20260830221413 | 72 | 49 | 0.0 | 0.0 | 0.00 | 0.00 | 0.00 | 83 | 1013.2 |
| 20260830220912 | 72 | 49 | 0.0 | 0.9 | 0.00 | 0.00 | 0.00 | 83 | 1013.2 |
| 20260830220412 | 72 | 49 | 0.0 | 0.0 | 0.00 | 0.00 | 0.00 | 83 | 1013.2 |
| 20260830215912 | 72 | 49 | 0.0 | 0.0 | 0.00 | 0.00 | 0.00 | 82 | 1013.2 |
| 20260830215413 | 72 | 49 | 0.0 | 0.0 | 0.00 | 0.00 | 0.00 | 83 | 1013.2 |
| 20260830214412 | 72 | 49 | 0.9 | 1.7 | 0.00 | 0.00 | 0.00 | 83 | 1013.2 |
| 20260830213912 | 72 | 115 | 0.9 | 1.7 | 0.00 | 0.00 | 0.00 | 85 | 1013.2 |
| 20260830213412 | 71 | 115 | 0.0 | 0.9 | 0.00 | 0.00 | 0.00 | 85 | 1013.2 |
| 20260830212912 | 71 | 115 | 1.7 | 2.6 | 0.00 | 0.00 | 0.00 | 85 | 1013.2 |
| 20260830212412 | 71 | 115 | 1.7 | 6.1 | 0.00 | 0.00 | 0.00 | 84 | 1013.2 |
| 20260830211912 | 72 | 112 | 2.6 | 7.8 | 0.00 | 0.00 | 0.00 | 82 | 1013.2 |
| 20260830211412 | 73 | 52 | 0.0 | 0.0 | 0.00 | 0.00 | 0.00 | 83 | 1013.1 |
| 20260830210912 | 73 | 52 | 0.0 | 0.0 | 0.00 | 0.00 | 0.00 | 82 | 1013.0 |
| 20260830210412 | 73 | 52 | 0.0 | 0.0 | 0.00 | 0.00 | 0.00 | 82 | 1013.1 |
| 20260830205912 | 73 | 52 | 0.0 | 0.0 | 0.00 | 0.00 | 0.00 | 82 | 1013.0 |
| 20260830205412 | 73 | 52 | 0.0 | 0.0 | 0.00 | 0.00 | 0.00 | 81 | 1013.0 |
| 20260830204913 | 73 | 52 | 0.0 | 0.0 | 0.00 | 0.00 | 0.00 | 81 | 1013.0 |
| 20260830204412 | 74 | 52 | 0.0 | 0.0 | 0.00 | 0.00 | 0.00 | 80 | 1013.0 |
| 20260830203912 | 74 | 52 | 0.0 | 0.0 | 0.00 | 0.00 | 0.00 | 79 | 1013.0 |
| 20260830201912 | 74 | 52 | 0.0 | 0.0 | 0.00 | 0.00 | 0.00 | 78 | 1012.9 |
| 20260830201412 | 74 | 52 | 0.0 | 0.0 | 0.00 | 0.00 | 0.00 | 78 | 1012.8 |
| 20260830200912 | 74 | 52 | 0.0 | 0.0 | 0.00 | 0.00 | 0.00 | 76 | 1012.9 |
| 20260830200412 | 75 | 52 | 0.0 | 0.0 | 0.00 | 0.00 | 0.00 | 77 | 1012.8 |
| 20260830195912 | 75 | 52 | 0.0 | 0.0 | 0.00 | 0.00 | 0.00 | 75 | 1012.8 |
| 20260830195412 | 75 | 52 | 0.0 | 0.0 | 0.00 | 0.00 | 0.00 | 75 | 1012.8 |
| 20260830194411 | 75 | 52 | 0.0 | 0.0 | 0.00 | 0.00 | 0.00 | 76 | 1012.7 |
| 20260830193912 | 75 | 52 | 0.0 | 0.0 | 0.00 | 0.00 | 0.00 | 75 | 1012.7 |
| 20260830193412 | 75 | 52 | 0.0 | 0.0 | 0.00 | 0.00 | 0.00 | 76 | 1012.7 |
| 20260830192911 | 75 | 63 | 0.0 | 0.0 | 0.00 | 0.00 | 0.00 | 76 | 1012.6 |
| 20260830191912 | 76 | 63 | 0.0 | 0.0 | 0.00 | 0.00 | 0.00 | 75 | 1012.6 |
| 20260830191412 | 76 | 63 | 0.0 | 0.0 | 0.00 | 0.00 | 0.00 | 75 | 1012.5 |
| 20260830190911 | 76 | 63 | 0.0 | 0.0 | 0.00 | 0.00 | 0.00 | 75 | 1012.5 |
| 20260830185912 | 77 | 63 | 0.0 | 0.0 | 0.00 | 0.00 | 0.00 | 73 | 1012.4 |
| 20260830185412 | 77 | 63 | 0.0 | 0.0 | 0.00 | 0.00 | 0.00 | 72 | 1012.4 |
| 20260830184912 | 77 | 63 | 0.0 | 0.0 | 0.00 | 0.00 | 0.00 | 72 | 1012.5 |
| 20260830184411 | 77 | 63 | 0.0 | 0.0 | 0.00 | 0.00 | 0.00 | 71 | 1012.4 |
| 20260830183411 | 78 | 63 | 0.0 | 0.0 | 0.00 | 0.00 | 0.00 | 70 | 1012.2 |
| 20260830182412 | 78 | 63 | 0.0 | 0.0 | 0.00 | 0.00 | 0.00 | 67 | 1012.1 |
| 20260830180911 | 79 | 63 | 0.0 | 0.0 | 0.00 | 0.00 | 0.00 | 67 | 1012.0 |
| 20260830180411 | 80 | 63 | 0.0 | 0.0 | 0.00 | 0.00 | 0.00 | 67 | 1012.0 |
| 20260830175412 | 80 | 63 | 0.0 | 0.0 | 0.00 | 0.00 | 0.00 | 66 | 1012.0 |
| 20260830174911 | 81 | 63 | 0.0 | 0.0 | 0.00 | 0.00 | 0.00 | 66 | 1011.9 |
| 20260830174411 | 82 | 63 | 0.0 | 0.0 | 0.00 | 0.00 | 0.00 | 65 | 1011.9 |
| 20260830173912 | 82 | 63 | 0.0 | 0.0 | 0.00 | 0.00 | 0.00 | 64 | 1011.9 |
| 20260830172912 | 83 | 63 | 0.0 | 0.0 | 0.00 | 0.00 | 0.00 | 58 | 1011.8 |
| 20260830171911 | 85 | 76 | 0.0 | 0.9 | 0.00 | 0.00 | 0.00 | 57 | 1011.8 |
| 20260830171411 | 85 | 76 | 0.9 | 1.7 | 0.00 | 0.00 | 0.00 | 56 | 1011.8 |
| 20260830165911 | 86 | 64 | 0.9 | 1.7 | 0.00 | 0.00 | 0.00 | 56 | 1011.9 |
| 20260830164411 | 87 | 65 | 1.7 | 2.6 | 0.00 | 0.00 | 0.00 | 50 | 1011.9 |
| 20260830163912 | 87 | 61 | 1.7 | 2.6 | 0.00 | 0.00 | 0.00 | 51 | 1012.0 |
| 20260830162912 | 87 | 76 | 1.7 | 2.6 | 0.00 | 0.00 | 0.00 | 48 | 1012.0 |
| 20260830162412 | 87 | 76 | 1.7 | 2.6 | 0.00 | 0.00 | 0.00 | 48 | 1012.0 |
| 20260830161911 | 88 | 91 | 0.9 | 2.6 | 0.00 | 0.00 | 0.00 | 47 | 1012.0 |
| 20260830161411 | 88 | 40 | 0.9 | 1.7 | 0.00 | 0.00 | 0.00 | 49 | 1012.0 |
| 20260830160911 | 88 | 77 | 0.9 | 2.6 | 0.00 | 0.00 | 0.00 | 48 | 1012.1 |
| 20260830160411 | 88 | 91 | 1.7 | 2.6 | 0.00 | 0.00 | 0.00 | 48 | 1012.1 |
| 20260830155911 | 88 | 91 | 1.7 | 2.6 | 0.00 | 0.00 | 0.00 | 47 | 1012.1 |
| 20260830155411 | 88 | 75 | 1.7 | 2.6 | 0.00 | 0.00 | 0.00 | 47 | 1012.2 |
| 20260830154911 | 88 | 71 | 1.7 | 4.3 | 0.00 | 0.00 | 0.00 | 47 | 1012.1 |
| 20260830154411 | 88 | 108 | 1.7 | 2.6 | 0.00 | 0.00 | 0.00 | 45 | 1012.2 |
| 20260830153911 | 88 | 108 | 1.7 | 2.6 | 0.00 | 0.00 | 0.00 | 46 | 1012.2 |
| 20260830153410 | 88 | 117 | 1.7 | 2.6 | 0.00 | 0.00 | 0.00 | 43 | 1012.2 |
| 20260830152911 | 88 | 106 | 1.7 | 4.3 | 0.00 | 0.00 | 0.00 | 44 | 1012.2 |
| 20260830152411 | 88 | 94 | 1.7 | 2.6 | 0.00 | 0.00 | 0.00 | 42 | 1012.3 |
| 20260830151911 | 89 | 82 | 1.7 | 4.3 | 0.00 | 0.00 | 0.00 | 42 | 1012.3 |
| 20260830151411 | 88 | 138 | 1.7 | 2.6 | 0.00 | 0.00 | 0.00 | 42 | 1012.3 |
| 20260830150911 | 89 | 117 | 2.6 | 4.3 | 0.00 | 0.00 | 0.00 | 42 | 1012.4 |
| 20260830150411 | 89 | 101 | 2.6 | 5.2 | 0.00 | 0.00 | 0.00 | 41 | 1012.4 |
| 20260830145411 | 89 | 72 | 2.6 | 4.3 | 0.00 | 0.00 | 0.00 | 44 | 1012.4 |
| 20260830144911 | 89 | 120 | 0.9 | 2.6 | 0.00 | 0.00 | 0.00 | 41 | 1012.4 |
| 20260830144411 | 89 | 119 | 1.7 | 4.3 | 0.00 | 0.00 | 0.00 | 43 | 1012.4 |
| 20260830143911 | 89 | 68 | 2.6 | 4.3 | 0.00 | 0.00 | 0.00 | 42 | 1012.4 |
| 20260830142911 | 88 | 110 | 2.6 | 4.3 | 0.00 | 0.00 | 0.00 | 44 | 1012.5 |
| 20260830142411 | 89 | 109 | 2.6 | 4.3 | 0.00 | 0.00 | 0.00 | 45 | 1012.5 |
| 20260830141911 | 89 | 78 | 4.3 | 6.1 | 0.00 | 0.00 | 0.00 | 47 | 1012.5 |
| 20260830141411 | 89 | 48 | 4.3 | 7.0 | 0.00 | 0.00 | 0.00 | 48 | 1012.5 |
| 20260830140911 | 89 | 103 | 2.6 | 5.2 | 0.00 | 0.00 | 0.00 | 49 | 1012.6 |
| 20260830140411 | 89 | 53 | 2.6 | 4.3 | 0.00 | 0.00 | 0.00 | 47 | 1012.6 |
| 20260830135411 | 89 | 68 | 4.3 | 6.1 | 0.00 | 0.00 | 0.00 | 47 | 1012.7 |
| 20260830134911 | 89 | 56 | 2.6 | 4.3 | 0.00 | 0.00 | 0.00 | 44 | 1012.7 |
| 20260830134411 | 89 | 0 | 1.7 | 2.6 | 0.00 | 0.00 | 0.00 | 41 | 1012.7 |
| 20260830133911 | 89 | 37 | 1.7 | 4.3 | 0.00 | 0.00 | 0.00 | 46 | 1012.8 |
| 20260830132910 | 88 | 87 | 2.6 | 6.1 | 0.00 | 0.00 | 0.00 | 49 | 1012.9 |
| 20260830130911 | 89 | 101 | 0.9 | 2.6 | 0.00 | 0.00 | 0.00 | 52 | 1013.1 |
| 20260830130410 | 88 | 65 | 3.5 | 6.1 | 0.00 | 0.00 | 0.00 | 55 | 1013.2 |
| 20260830125911 | 88 | 64 | 1.7 | 2.6 | 0.00 | 0.00 | 0.00 | 53 | 1013.3 |
| 20260830125411 | 87 | 117 | 1.7 | 4.3 | 0.00 | 0.00 | 0.00 | 52 | 1013.3 |
| 20260830124911 | 87 | 122 | 1.7 | 2.6 | 0.00 | 0.00 | 0.00 | 54 | 1013.3 |
| 20260830124410 | 88 | 102 | 3.5 | 5.2 | 0.00 | 0.00 | 0.00 | 56 | 1013.4 |
| 20260830123911 | 87 | 65 | 1.7 | 4.3 | 0.00 | 0.00 | 0.00 | 54 | 1013.4 |
| 20260830122910 | 87 | 213 | 1.7 | 6.1 | 0.00 | 0.00 | 0.00 | 56 | 1013.5 |
| 20260830122410 | 87 | 130 | 1.7 | 2.6 | 0.00 | 0.00 | 0.00 | 55 | 1013.4 |